Simultaneous Nadir Overpasses (SNOs) Predictions

Prediction of SNOs between AQUA and NOAA-19 Satellite Orbit:

Table of predicted SNOs for the next 14.0 days since TLE Epoch: 12/29/2013
Index Date (AQUA) Time (AQUA) Lat,Lon (AQUA) SZA (AQUA ) Date (NOAA-19) Time (NOAA-19) Lat,Lon (NOAA-19) SZA (NOAA-19 ) Distance(km) Time Diff (sec)
1 12/29/2013 11:41:35 -70.07,-174.81 86.85 12/29/2013 11:41:45 -70.07,-174.85 86.84 1.65 10
2 12/31/2013 16:25:58 -70.39, 113.65 86.67 12/31/2013 16:25:57 -70.40, 113.63 86.66 0.88 1
3 01/02/2014 21:10:18 -70.58, 42.31 86.67 01/02/2014 21:10:06 -70.57, 42.34 86.67 1.14 12
4 01/02/2014 21:53:35 49.16,-134.03 72.83 01/02/2014 21:54:47 49.31,-133.01 73.17 76.17 72
5 01/05/2014 01:54:46 -71.22, -29.75 86.25 01/05/2014 01:54:24 -71.22, -29.78 86.24 1.12 22
6 01/05/2014 02:43:12 67.81, 142.51 90.33 01/05/2014 02:44:25 67.80, 142.56 90.33 2.23 73
7 01/07/2014 06:39:10 -71.66,-101.54 86.05 01/07/2014 06:38:38 -71.66,-101.59 86.04 2.09 32
8 01/07/2014 07:27:44 68.71, 70.36 90.97 01/07/2014 07:28:48 68.72, 70.35 90.97 0.59 64
9 01/09/2014 11:23:31 -71.95,-173.11 86.04 01/09/2014 11:22:49 -71.96,-173.16 86.02 1.74 42
10 01/09/2014 12:12:13 69.47, -1.68 91.43 01/09/2014 12:13:08 69.48, -1.74 91.44 2.52 55
11 01/11/2014 16:07:48 -72.06, 115.65 86.26 01/11/2014 16:06:56 -72.06, 115.65 86.25 0.11 52




NCC Satellite Simultaneous Nadir Overpasses (SNOs) Prediction Service
